Location: Complexul Astronomic Baia Mare
(47.6577°N, 23.5639°E)
Time: 05:53:37
(UTC+03:00)

ISS - Pass Details

Date: 17 March 2017
Orbit: 399 x 409 km, 51.6° (Epoch: 30 March)

Event Time Altitude Azimuth Distance (km) Brightness Sun altitude
Exits shadow 05:51:05 - 294° (WNW) 1,616 -1.3 -8.2°
Reaches altitude 10° 05:51:25 10° 294° (WNW) 1,478 -1.5 -8.1°
Maximum altitude 05:54:45 89° 24° (NNE) 415 -3.8 -7.6°
Drops below altitude 10° 05:58:04 10° 115° (ESE) 1,474 0.1 -7.0°
Sets 06:00:08 0° 115° (ESE) 2,333 1.2 -6.7°
